EW8518 Ersa FR current weather conditions

sailwx.info

Wind from 329 at 4 knots gusting 13

Air temperature 16.1° C
Dewpoint 12.1° C

Last reported at 2019-Dec-07 12:02 UTC.
Time now 2019-Dec-07 12:35 UTC

Location: N 43°00' E 009°24'.
View on Google Maps.

See reports from other nearby stations

  
Tides and Currents Weather Stations Pressure Air Temp Water Temp Dewpoint Dewpoint Depression Visibility Wind Speed Wind Dir Waves Ship Positions
date/time (UTC)wind fromknots sea level pressurealtimeterstation pressurevisibilityair tempwater tempwave heightnotes
2019-Dec-07 12:02 329 4 gusting 13 16.1
2019-Dec-07 11:46 284 6 gusting 14 16.1
2019-Dec-07 11:30 209 6 gusting 16 16.1
2019-Dec-07 11:16 260 10 gusting 19 15.6
2019-Dec-07 11:01 207 6 gusting 17 15.6
2019-Dec-07 10:46 231 5 gusting 11 15.6
2019-Dec-07 10:31 288 7 gusting 13 15.6
2019-Dec-07 10:16 277 6 gusting 19 15.0
2019-Dec-07 10:00 269 5 gusting 13 14.4
2019-Dec-07 09:45 221 4 gusting 11 14.4
2019-Dec-07 09:30 198 3 gusting 14 14.4
2019-Dec-07 09:15 240 4 gusting 15 14.4
2019-Dec-07 09:00 229 4 gusting 10 14.4
2019-Dec-07 08:45 255 2 gusting 9 13.9
2019-Dec-07 08:31 254 1 gusting 13 13.9
2019-Dec-07 08:15 281 4 gusting 8 13.9
2019-Dec-07 08:00 219 2 gusting 11 13.9
2019-Dec-07 07:45 221 2 gusting 7 13.9
2019-Dec-07 07:30 292 1 gusting 9 13.3
2019-Dec-07 07:15 229 5 gusting 9 13.9
2019-Dec-07 07:00 271 6 gusting 11 13.3
2019-Dec-07 06:45 267 1 gusting 9 13.3
2019-Dec-07 06:30 242 2 gusting 6 13.3
2019-Dec-07 06:15 257 0 gusting 12 13.3
2019-Dec-07 06:00 223 1 gusting 6 13.3
2019-Dec-07 05:45 273 0 gusting 8 13.9
2019-Dec-07 05:30 271 1 gusting 13 13.9
2019-Dec-07 05:15 277 3 gusting 8 13.9
2019-Dec-07 05:01 247 2 gusting 10 13.9
2019-Dec-07 04:46 255 5 gusting 10 13.9
2019-Dec-07 04:31 270 0 gusting 6 13.9
2019-Dec-07 04:17 292 2 gusting 8 13.9
2019-Dec-07 04:01 279 2 gusting 13 13.9
2019-Dec-07 03:46 282 1 gusting 6 13.3
2019-Dec-07 03:32 248 1 gusting 7 13.9
2019-Dec-07 03:16 252 2 gusting 10 13.9
2019-Dec-07 03:01 280 2 gusting 7 13.9
2019-Dec-07 02:47 291 3 gusting 9 13.9
2019-Dec-07 02:31 273 0 gusting 8 13.3
2019-Dec-07 02:16 287 2 gusting 9 13.3
2019-Dec-07 02:01 267 13.3
2019-Dec-07 01:45 288 4 gusting 7 13.3
2019-Dec-07 01:31 286 0 gusting 8 13.3
2019-Dec-07 01:15 279 0 gusting 7 13.3
2019-Dec-07 01:01 285 1 gusting 6 13.3
2019-Dec-07 00:46 244 0 gusting 7 13.3
2019-Dec-07 00:31 253 1 gusting 8 13.3
2019-Dec-07 00:15 241 12.8
2019-Dec-07 00:00 254 1 gusting 6 12.8
2019-Dec-06 23:46 266 12.8
2019-Dec-06 23:30 267 13.3
2019-Dec-06 23:15 252 0 gusting 2 13.3
2019-Dec-06 23:00 247 0 gusting 4 13.3
2019-Dec-06 22:45 242 13.3
2019-Dec-06 22:30 249 1 gusting 6 13.3
2019-Dec-06 22:15 208 1 gusting 6 13.3
2019-Dec-06 22:00 257 0 gusting 5 13.3
2019-Dec-06 21:45 251 0 gusting 6 13.3
2019-Dec-06 21:30 250 12.8
2019-Dec-06 21:15 238 3 gusting 6 12.8
2019-Dec-06 21:00 277 12.8
2019-Dec-06 20:45 278 12.8
2019-Dec-06 20:30 278 0 gusting 2 12.8
2019-Dec-06 20:15 278 0 gusting 3 12.8
2019-Dec-06 20:00 281 12.8
2019-Dec-06 19:45 280 0 gusting 9 13.3
2019-Dec-06 19:30 286 13.3
2019-Dec-06 19:15 286 13.3
2019-Dec-06 19:00 285 0 gusting 3 13.3
2019-Dec-06 18:45 213 12.2
2019-Dec-06 18:31 213 12.2
2019-Dec-06 18:15 213 12.8
2019-Dec-06 18:00 213 12.8
2019-Dec-06 17:45 213 12.8
2019-Dec-06 17:30 213 12.8
2019-Dec-06 17:15 213 12.8
2019-Dec-06 16:45 213 0 gusting 2 12.8
2019-Dec-06 16:30 213 0 gusting 3 13.3
2019-Dec-06 16:15 213 1 gusting 5 13.3
2019-Dec-06 16:00 237 0 gusting 6 13.3
2019-Dec-06 15:45 244 13.9
2019-Dec-06 15:30 243 0 gusting 3 13.9
2019-Dec-06 15:15 244 14.4
2019-Dec-06 15:00 242 0 gusting 4 14.4
2019-Dec-06 14:45 273 0 gusting 1 14.4
2019-Dec-06 14:30 273 0 gusting 2 15.0
2019-Dec-06 14:15 294 1 gusting 6 15.6
2019-Dec-06 14:03 311 0 gusting 6 15.6
2019-Dec-06 13:46 315 1 gusting 4 15.0
2019-Dec-06 13:32 288 1 gusting 4 14.4
2019-Dec-06 13:16 277 0 gusting 3 15.0
2019-Dec-06 13:02 287 3 gusting 6 15.0
2019-Dec-06 12:46 289 2 gusting 8 15.6
2019-Dec-06 12:32 285 3 gusting 7 16.1
2019-Dec-06 12:17 276 2 gusting 9 16.1
2019-Dec-06 12:01 283 1 gusting 6 16.1
2019-Dec-06 11:46 281 1 gusting 6 16.1
2019-Dec-06 11:31 289 1 gusting 6 16.1
2019-Dec-06 11:16 257 16.1
2019-Dec-06 11:01 225 0 gusting 6 15.6
2019-Dec-06 10:46 250 2 gusting 6 16.1
2019-Dec-06 10:31 233 2 gusting 7 16.7
2019-Dec-06 10:16 247 1 gusting 6 17.2
2019-Dec-06 10:01 161 1 gusting 6 17.2
2019-Dec-06 09:45 234 0 gusting 4 16.7
2019-Dec-06 09:31 190 2 gusting 6 16.1
2019-Dec-06 09:16 234 15.6
2019-Dec-06 09:01 178 15.0
2019-Dec-06 08:45 178 14.4
2019-Dec-06 08:30 178 13.3
2019-Dec-06 08:16 178 12.2
2019-Dec-06 08:00 178 0 gusting 2 11.7
2019-Dec-06 07:45 178 10.6
2019-Dec-06 07:30 178 10.6
2019-Dec-06 07:15 178 10.6
2019-Dec-06 07:00 178 10.6
2019-Dec-06 06:45 175 0 gusting 3 10.0
2019-Dec-06 06:30 175 0 gusting 2 10.0
2019-Dec-06 06:15 175 1 gusting 5 10.6
2019-Dec-06 06:00 159 10.6
2019-Dec-06 05:45 159 0 gusting 4 11.1
2019-Dec-06 05:30 167 11.7
2019-Dec-06 05:16 198 12.2
2019-Dec-06 05:03 194 0 gusting 3 12.2
2019-Dec-06 04:47 195 0 gusting 3 11.7
2019-Dec-06 04:32 205 0 gusting 3 12.2
2019-Dec-06 04:16 207 12.2
2019-Dec-06 04:02 207 0 gusting 3 12.8
2019-Dec-06 03:48 208 2 gusting 5 12.8
2019-Dec-06 03:31 153 0 gusting 4 12.2
2019-Dec-06 03:17 142 0 gusting 2 12.2
2019-Dec-06 03:02 142 11.7
2019-Dec-06 02:46 142 12.2
2019-Dec-06 02:32 142 12.2
2019-Dec-06 02:17 142 0 gusting 6 12.8
2019-Dec-06 02:01 150 2 gusting 5 12.8
2019-Dec-06 01:46 167 2 gusting 5 13.3
2019-Dec-06 01:31 154 1 gusting 6 13.3
2019-Dec-06 01:16 163 0 gusting 5 13.3
2019-Dec-06 01:01 146 2 gusting 6 13.3
2019-Dec-06 00:46 161 2 gusting 5 13.3
2019-Dec-06 00:31 143 2 gusting 7 13.9
2019-Dec-06 00:16 150 1 gusting 6 13.9
2019-Dec-06 00:01 136 3 gusting 10 13.9
2019-Dec-05 23:46 131 1 gusting 9 13.9
2019-Dec-05 23:31 155 3 gusting 7 13.9
2019-Dec-05 23:16 155 5 gusting 11 13.3
2019-Dec-05 23:01 149 4 gusting 9 13.3
2019-Dec-05 22:45 150 2 gusting 8 12.8
2019-Dec-05 22:30 146 2 gusting 11 12.8
2019-Dec-05 22:16 140 2 gusting 7 12.8
2019-Dec-05 22:01 159 2 gusting 8 12.8
2019-Dec-05 21:46 124 2 gusting 8 12.8
2019-Dec-05 21:31 148 3 gusting 12 12.8
2019-Dec-05 21:15 144 2 gusting 6 12.8
2019-Dec-05 21:00 167 2 gusting 4 12.8
2019-Dec-05 20:45 152 0 gusting 5 12.8
2019-Dec-05 20:30 155 1 gusting 6 13.3
2019-Dec-05 20:15 164 4 gusting 8 13.9
2019-Dec-05 20:00 138 2 gusting 6 13.9
2019-Dec-05 19:45 126 2 gusting 9 13.9
2019-Dec-05 19:30 146 2 gusting 10 13.9
2019-Dec-05 19:15 120 2 gusting 6 13.9
2019-Dec-05 19:00 146 3 gusting 8 13.9
2019-Dec-05 18:45 109 3 gusting 10 13.3
2019-Dec-05 18:30 157 3 gusting 8 13.3
2019-Dec-05 18:15 113 1 gusting 8 13.3
2019-Dec-05 18:00 132 4 gusting 11 13.9
2019-Dec-05 17:45 147 3 gusting 8 13.9
2019-Dec-05 17:30 115 6 gusting 10 13.9
2019-Dec-05 17:15 086 6 gusting 13 13.3
2019-Dec-05 17:00 096 7 gusting 17 13.3
2019-Dec-05 16:45 138 8 gusting 16 13.3
2019-Dec-05 16:30 130 9 gusting 15 13.9
2019-Dec-05 16:15 134 6 gusting 16 13.9
2019-Dec-05 16:02 110 9 gusting 15 14.4
2019-Dec-05 15:46 128 6 gusting 13 13.9
2019-Dec-05 15:31 137 5 gusting 10 14.4
2019-Dec-05 15:16 127 5 gusting 15 14.4
2019-Dec-05 15:03 148 3 gusting 9 14.4
2019-Dec-05 14:47 111 2 gusting 10 14.4
2019-Dec-05 14:32 125 3 gusting 13 14.4
2019-Dec-05 14:17 140 2 gusting 11 14.4
2019-Dec-05 14:01 109 5 gusting 13 14.4
2019-Dec-05 13:47 146 6 gusting 12 14.4
2019-Dec-05 13:32 146 4 gusting 13 14.4
2019-Dec-05 13:18 100 5 gusting 12 14.4
2019-Dec-05 13:01 116 6 gusting 15 14.4
2019-Dec-05 12:46 138 7 gusting 13 15.0
2019-Dec-05 12:31 117 6 gusting 12 15.0
2019-Dec-05 12:17 103 6 gusting 11 15.0
2019-Dec-05 12:01 153 6 gusting 10 15.0